Showing default

METEOR 3M, 27001

Orbit data source: Space-Track

METEOR 3M, 27001 is a Commonwealth of Independent States-origin payload satellite in SSO that was launched on Mon, 10 Dec 2001 UTC via a ZENIT-2 launch vehicle from the Tyuratam Missile And Space Complex (TTMTR). Payload-class satellites include a variety of spacecraft equipped with specific instruments for various scientific and technological missions. These include communications satellites like Starlink; space stations such as the ISS; scientific satellites like the Hubble; Earth observation satellites from companies like Planet Labs, Umbra, and HawkEye 360; GPS; miniature CubeSats for education and research; and military/defense satellites.

Loading next visibility...
Identifier
27001, 2001-056A
Orbit
SSO
Country
Flag of CISCIS
Related business
Manufacturer
VNIIEM
Mission
Civil Weather
Bus & Motor
METEOR-3, Unknown motor
Mass
2,476 kg wet, ~2,300 kg dry
Launch date (UTC)
2001-12-10 (24 years ago)
Launch vehicle
ZENIT-2
Launch site
Tyuratam Missile And Space Complex (TTMTR)
Object type
Payload
Rocket body
Debris
Shape & HBR
Cyl + 2 Pan, 7.0 m
Radar Cross Section
26.744 m², Large (>1 m²)

Expand to show TLE details & history
Last TLE update: 6 days ago

TLE from 6 days ago
0 METEOR 3M
1 27001U 01056A   26155.12464652 -.00000027  00000-0  23137-4 0  9991
2 27001  99.8235 341.3286 0013004 229.1091 237.6544 13.69042200223091
Epoch: 2026-06-04T02:59Z
TLE epoch observation values (Epoch: 2026-06-04T02:59:29.459Z)
Latitude
70.82435°
Longitude
-106.42585°
Altitude
1,020.311 km
Speed
7.345 km/s
True Right ascension
12h 44m 04s
True Declination
70° 43' 16"
Sunlit
Object was in daylight at epoch
Visualization orbit readout
Latitude
Unknown
Longitude
Unknown
Altitude
Unknown
Speed
Unknown
Apparent Right ascension
Unknown
Apparent Declination
Unknown
Sunlit
N/A
Visualization observer readout
Local Sidereal Time
19:20:55
Azimuth
Unknown
Elevation
Unknown
Doppler factor
Unknown
Orbital elements
Apogee altitude
1,009.889 km
Perigee altitude
990.699 km
Semi-major axis
7,378.431 km
Eccentricity
0.0013
Inclination
99.8235°
RAAN
341.3286°
Arg. of periapsis
229.1091°
True anomaly
237.52862°
Mean anomaly
237.6544°
Eccentric anomaly
237.5915°
Mean motion
3.4245 °/min
Orbital period
105.12 mins
BSTAR
0.000023137
Loading maneuver chart data...
Computing Atmospheric mass density...
Loading historical data...
Loading historical data...
Loading historical data...
Loading historical data...
Loading historical data...
Loading historical data...
Loading historical data...

Documentation

Showing up to 5 results
|